Weather History for Peoria, IL

Change the Weather History Date:

Wednesday, May 22, 2013

  Actual Average Record
Temperature  
Mean Temperature 66 °F 64 °F  
Max Temperature 73 °F 75 °F 93 °F (1925)
Min Temperature 59 °F 53 °F 35 °F (1963)
Degree Days  
Heating Degree Days 0 4  
Month to date heating degree days 79 124  
Since 1 July heating degree days 5771 5789  
Cooling Degree Days 1 3  
Month to date cooling degree days 70 36  
Year to date cooling degree days 79 50  
Growing Degree Days 16 (Base 50)    
Moisture  
Dew Point 57 °F    
Average Humidity 70    
Maximum Humidity 87    
Minimum Humidity 53    
Precipitation  
Precipitation 0.19 in 0.15 in 1.07 in (1899)
Month to date precipitation 4.80 3.13  
Year to date precipitation 21.91 13.13  
Snow  
Snow 0.00 in 0.00 in 0.00 in ()
Month to date snowfall 0.0 0.0  
Since 1 July snowfall 22.7 24.6  
Snow Depth 0.00 in    
Sea Level Pressure  
Sea Level Pressure 29.71 in    
Wind  
Wind Speed 9 mph (WSW)    
Max Wind Speed 18 mph    
Max Gust Speed 24 mph    
Visibility 9 miles    
Events Rain    
T = Trace of Precipitation, MM = Missing Value Source: NWS Daily Summary

Daily Weather History Graph

Daily Weather History Graph

Search for Another Location

Airport:

Trip Planner

Search our weather history database for the weather conditions in past years. The results will help you decide how hot, cold, wet, or windy it might be!

Date:

Astronomy

May. 22, 2013 Rise Set
Actual Time 5:35 AM CDT 8:15 PM CDT
Civil Twilight 5:03 AM CDT 8:47 PM CDT
Nautical Twilight 4:24 AM CDT 9:27 PM CDT
Astronomical Twilight 3:39 AM CDT 10:12 PM CDT
Moon 5:37 PM CDT (5/22) 3:40 AM CDT (5/22)
Length of Visible Light 15h 43m
Length of Day
14h 40m
Waxing Gibbous, 91% of the Moon is Illuminated
May 22
Waxing Gibbous
May 24
Full
May 31
Last Quarter
Jun 8
New
Jun 16
First Quarter

Hourly Weather History & Observations

Time (CDT) Temp. Dew Point Humidity Pressure Visibility Wind Dir Wind Speed Gust Speed Precip Events Conditions
12:54 AM 68.0 °F 63.0 °F 84% 29.68 in 10.0 mi South 8.1 mph - N/A   Overcast
1:54 AM 66.9 °F 63.0 °F 87% 29.67 in 10.0 mi SW 5.8 mph - N/A   Overcast
2:54 AM 66.9 °F 60.1 °F 79% 29.66 in 10.0 mi West 5.8 mph - N/A   Overcast
3:54 AM 66.0 °F 57.9 °F 75% 29.66 in 10.0 mi SSW 5.8 mph - N/A   Overcast
4:54 AM 64.0 °F 59.0 °F 84% 29.65 in 10.0 mi SSW 4.6 mph - 0.01 in   Overcast
5:54 AM 64.0 °F 60.1 °F 87% 29.67 in 10.0 mi SSW 6.9 mph - 0.00 in Rain Light Rain
6:54 AM 64.0 °F 60.1 °F 87% 29.64 in 10.0 mi Calm Calm - 0.00 in   Mostly Cloudy
7:54 AM 64.9 °F 61.0 °F 87% 29.65 in 10.0 mi SW 6.9 mph - 0.00 in   Overcast
8:35 AM 64.0 °F 60.1 °F 87% 29.68 in 1.8 mi West 9.2 mph - 0.01 in Rain Heavy Rain
8:46 AM 63.0 °F 60.1 °F 90% 29.68 in 3.0 mi West 6.9 mph - 0.06 in Rain Light Rain
8:52 AM 62.6 °F 60.8 °F 94% 29.69 in 2.5 mi West 9.2 mph - 0.08 in Rain Rain
8:54 AM 63.0 °F 60.1 °F 90% 29.68 in 2.0 mi West 11.5 mph - 0.08 in Rain Heavy Rain
9:01 AM 62.1 °F 59.0 °F 90% 29.70 in 1.5 mi West 12.7 mph 18.4 mph 0.03 in Rain Heavy Rain
9:13 AM 60.1 °F 55.9 °F 86% 29.70 in 2.5 mi WNW 10.4 mph - 0.09 in Rain Light Rain
9:20 AM 59.0 °F 55.9 °F 90% 29.70 in 6.0 mi WNW 6.9 mph - 0.10 in Rain Light Rain
9:54 AM 64.0 °F 55.9 °F 75% 29.69 in 10.0 mi WNW 3.5 mph - 0.10 in   Overcast
10:54 AM 66.0 °F 57.0 °F 73% 29.69 in 10.0 mi West 4.6 mph - 0.00 in   Overcast
11:54 AM 69.1 °F 57.0 °F 65% 29.70 in 10.0 mi SW 8.1 mph - N/A   Clear
12:54 PM 71.1 °F 57.0 °F 61% 29.70 in 10.0 mi SSW 8.1 mph - N/A   Mostly Cloudy
1:54 PM 71.1 °F 54.0 °F 55% 29.70 in 10.0 mi West 11.5 mph - N/A   Overcast
2:54 PM 73.0 °F 55.0 °F 53% 29.70 in 10.0 mi West 12.7 mph - N/A   Mostly Cloudy
3:54 PM 70.0 °F 54.0 °F 57% 29.70 in 10.0 mi West 12.7 mph 24.2 mph N/A   Overcast
4:54 PM 68.0 °F 54.0 °F 61% 29.72 in 10.0 mi West 11.5 mph 24.2 mph N/A   Overcast
5:54 PM 66.9 °F 54.0 °F 63% 29.73 in 10.0 mi West 15.0 mph 20.7 mph N/A   Overcast
6:54 PM 64.9 °F 54.0 °F 68% 29.74 in 10.0 mi West 13.8 mph 19.6 mph N/A   Overcast
7:54 PM 64.0 °F 54.0 °F 70% 29.75 in 10.0 mi West 11.5 mph 19.6 mph N/A   Overcast
8:54 PM 63.0 °F 53.1 °F 70% 29.77 in 10.0 mi West 12.7 mph - N/A   Overcast
9:54 PM 61.0 °F 54.0 °F 78% 29.79 in 10.0 mi West 10.4 mph - N/A   Overcast
10:54 PM 61.0 °F 54.0 °F 78% 29.80 in 10.0 mi West 9.2 mph - N/A   Overcast
11:42 PM 60.1 °F 54.0 °F 80% 29.81 in 10.0 mi West 9.2 mph - N/A   Overcast
11:54 PM 60.1 °F 54.0 °F 80% 29.81 in 10.0 mi West 6.9 mph - N/A   Overcast